Regional Weather Roundup
Issued by NWS Mt. Holly, NJ

Home | Current Version | Previous Version | Text Only | Print | Product List | Glossary On
Versions: 1 2 3 4 5 6 7 8 9 10 11 12 13 14 15 16 17 18 19 20 21 22 23 24 25
000
ASUS41 KPHI 291212
RWRPHI

REGIONAL WEATHER ROUNDUP
NATIONAL WEATHER SERVICE MOUNT HOLLY NJ
800 AM EDT THU JUN 29 2017

NOTE:  "FAIR" INDICATES FEW OR NO CLOUDS BELOW 12,000 FEET WITH NO
SIGNIFICANT WEATHER AND/OR OBSTRUCTIONS TO VISIBILITY.

 * = STATION DOES NOT REPORT PRECIPITATION (E.G. RAIN, SNOW, ETC.)
        OR FOG.

NJZ015>026-291300-
SOUTHERN NEW JERSEY

CITY           SKY/WX    TMP DP  RH WIND       PRES   REMARKS
POMONA         PTSUNNY   70  56  61 S8        30.19S
6HR MIN TEMP:  62; 6HR MAX TEMP:  70;

WILDWOOD*      SUNNY     71  58  63 S10       30.20S
MILLVILLE      CLOUDY    72  65  78 VRB3      30.18S
WRIGHTSTOWN    CLOUDY    66  61  82 SW6       30.15S
MOUNT HOLLY    CLOUDY    69  64  84 CALM      30.17S
TRENTON        CLOUDY    69  61  75 S8        30.16F
6HR MIN TEMP:  62; 6HR MAX TEMP:  69;


$$
NJZ001>014-291300-
NORTHERN NEW JERSEY

CITY           SKY/WX    TMP DP  RH WIND       PRES   REMARKS
SUSSEX         SUNNY     64  58  80 SW3       30.15F
ANDOVER*         N/A     67  58  72 SW5       30.16S
MORRISTOWN     MOSUNNY   68  59  73 SW6       30.16F
NEWARK         PTSUNNY   70  58  65 SW12      30.16S
CALDWELL       SUNNY     68  56  65 W3        30.16F
ALLAIRE*       PTSUNNY   69  60  73 S7        30.18F
TOMS RIVER*    CLOUDY    68  60  75 SW9       30.19S

$$
PAZ043-044-047-054-055-060>062-066>071-291300-
EASTERN PENNSYLVANIA

CITY           SKY/WX    TMP DP  RH WIND       PRES   REMARKS
PHILADELPHIA   CLOUDY    70  59  68 S12       30.17S
6HR MIN TEMP:  66; 6HR MAX TEMP:  70;

NORTH PHILA    CLOUDY    72  60  66 SW12      30.18S
BLUE BELL*     CLOUDY    68  59  73 SW6       30.18S
DOYLESTOWN     CLOUDY    68  60  75 S3        30.16S
QUAKERTOWN*    CLOUDY    68  59  73 SW6       30.17S
PERKASIE*      FAIR      66  61  82 S3        30.18S
POTTSTOWN      CLOUDY    66  59  78 S5        30.18R
LANCASTER      SUNNY     69  60  73 S5        30.15S
COATESVILLE    PTSUNNY   68  59  73 CALM      30.18R
READING        SUNNY     70  59  68 S7        30.14S
6HR MIN TEMP:  63; 6HR MAX TEMP:  70;

ALLENTOWN      NOT AVBL
MOUNT POCONO   CLOUDY    62  54  74 SW7       30.17S
6HR MIN TEMP:  58; 6HR MAX TEMP:  62;

HAZLETON         N/A     68  54  60 SE6       30.17F
LEHIGHTON      FAIR      61  55  82 CALM      30.16S
WILKES BARRE   MOSUNNY   69  55  60 S7        30.12F

$$
DEZALL-MDZ008-012-015-019-020-291300-
DELAWARE AND EASTERN MARYLAND

CITY           SKY/WX    TMP DP  RH WIND       PRES   REMARKS
WILMINGTON     MOSUNNY   69  60  73 S6        30.17S
6HR MIN TEMP:  63; 6HR MAX TEMP:  69;

DOVER          SUNNY     70  67  90 S13       30.17S
GEORGETOWN     CLOUDY    70  61  73 S9        30.20S
6HR MIN TEMP:  62; 6HR MAX TEMP:  70;

ABERDEEN       PTSUNNY   71  62  73 SW9       30.17R
PATUXENT       PTSUNNY   70  63  78 SW10      30.18S
OCEAN CITY     MOSUNNY   70  65  84 VRB5      30.22R
WALLOPS ISLAND CLOUDY    70  67  90 S9        30.23R
CAMBRIDGE      SUNNY     72  64  78 S8        30.19S
SALISBURY      CLOUDY    67  64  90 S8        30.21R

$$
PAZ001-021-NYZ056-072-MDZ011-DCZ001-291300-
OTHER NEARBY LOCATIONS

CITY           SKY/WX    TMP DP  RH WIND       PRES   REMARKS
HARRISBURG     CLOUDY    68  57  68 VRB5      30.12F
STATE COLLEGE  SUNNY     64  55  72 SW3       30.12S
WILLIAMSPORT   SUNNY     67  57  70 CALM      30.08F
BINGHAMTON     MOSUNNY   60  51  72 S6        30.10F
NEW YORK CITY  CLOUDY    70  58  65 VRB5      30.18F
BALTIMORE      PTSUNNY   68  60  75 VRB5      30.15S
WASHINGTON DC  PTSUNNY   70  62  76 S10       30.17S

$$




USA.gov is the U.S. government's official web portal to all federal, state and local government web resources and services.